San Luis Obispo, CA

8:49 PM PDT on May 28, 2017 (GMT -0700)
San Luis Obispo County-McChesney

Weather History for KSBP - February, 2013

Change the Weather History Date:

Sunday, February 10, 2013

  Actual Average Record
Temperature  
Mean Temperature 44 °F -  
Max Temperature 57 °F 62 °F 79 °F (1964)
Min Temperature 32 °F 42 °F 32 °F (2013)
Degree Days  
Heating Degree Days 20    
Moisture  
Dew Point 37 °F    
Average Humidity 80    
Maximum Humidity 93    
Minimum Humidity 47    
Precipitation  
Precipitation 0.00 in - - ()
Sea Level Pressure  
Sea Level Pressure 30.08 in    
Wind  
Wind Speed 3 mph (NNW)    
Max Wind Speed 15 mph    
Max Gust Speed -    
Visibility 10 miles    
Events      
Averages and records for this station are not official NWS values.
T = Trace of Precipitation, MM = Missing Value Source: NWS Daily Summary

Daily Weather History Graph

Daily Weather History Graph

Search for Another Location

Airport or City:

Trip Planner

Search our weather history database for the weather conditions in past years. The results will help you decide how hot, cold, wet, or windy it might be!

Date:

Astronomy

Feb. 10, 2013 Rise Set
Actual Time 6:53 AM PST 5:40 PM PST
Civil Twilight 6:27 AM PST 6:06 PM PST
Nautical Twilight 5:57 AM PST 6:36 PM PST
Astronomical Twilight 5:27 AM PST 7:06 PM PST
Moon 6:49 AM PST (2/10) 6:32 PM PST (2/10)
Length of Visible Light 11h 39m
Length of Day
10h 46m
New Moon, 0% of the Moon is Illuminated
Feb 10
New Moon
Feb 17
First Quarter
Feb 25
Full
Mar 4
Last Quarter
Mar 11
New

Hourly Weather History & Observations

Time (PST) Temp. Windchill Dew Point Humidity Pressure Visibility Wind Dir Wind Speed Gust Speed Precip Events Conditions
12:56 AM 37.0 °F 33.3 °F 35.1 °F 93% 30.12 in 10.0 mi ESE 4.6 mph - N/A   Clear
1:56 AM 37.0 °F 34.5 °F 35.1 °F 93% 30.10 in 10.0 mi East 3.5 mph - N/A   Clear
2:56 AM 35.1 °F - 33.1 °F 92% 30.10 in 10.0 mi Calm Calm - N/A   Clear
3:56 AM 34.0 °F - 32.0 °F 92% 30.09 in 10.0 mi Calm Calm - N/A   Clear
4:56 AM 34.0 °F - 32.0 °F 92% 30.10 in 10.0 mi Calm Calm - N/A   Clear
5:56 AM 33.1 °F - 30.9 °F 92% 30.10 in 10.0 mi Calm Calm - N/A   Mostly Cloudy
6:03 AM 32.0 °F - 30.2 °F 93% 30.09 in 10.0 mi Calm Calm - N/A   Mostly Cloudy
6:30 AM 32.0 °F - 30.2 °F 93% 30.09 in 10.0 mi Calm Calm - N/A   Scattered Clouds
6:56 AM 32.0 °F - 30.0 °F 92% 30.11 in 10.0 mi Calm Calm - N/A   Partly Cloudy
7:56 AM 34.0 °F - 32.0 °F 92% 30.12 in 10.0 mi Calm Calm - N/A   Clear
8:56 AM 41.0 °F - 36.0 °F 82% 30.13 in 10.0 mi Calm Calm - N/A   Clear
9:56 AM 46.9 °F - 39.0 °F 74% 30.12 in 10.0 mi Calm Calm - N/A   Clear
10:56 AM 53.1 °F - 41.0 °F 64% 30.11 in 10.0 mi Calm Calm - N/A   Clear
11:56 AM 55.9 °F - 37.0 °F 49% 30.07 in 10.0 mi NW 6.9 mph - N/A   Clear
12:56 PM 57.9 °F - 37.9 °F 47% 30.04 in 10.0 mi WNW 10.4 mph - N/A   Clear
1:56 PM 57.9 °F - 39.0 °F 49% 30.02 in 10.0 mi NW 15.0 mph - N/A   Clear
2:56 PM 55.9 °F - 39.9 °F 55% 30.02 in 10.0 mi NW 13.8 mph - N/A   Clear
3:56 PM 55.0 °F - 37.9 °F 53% 30.03 in 10.0 mi NNW 13.8 mph - N/A   Clear
4:56 PM 53.1 °F - 42.1 °F 66% 30.03 in 10.0 mi NNW 8.1 mph - N/A   Clear
5:56 PM 50.0 °F - 44.1 °F 80% 30.04 in 10.0 mi NNW 8.1 mph - N/A   Clear
6:56 PM 46.9 °F - 43.0 °F 86% 30.04 in 10.0 mi NW 5.8 mph - N/A   Clear
7:56 PM 46.0 °F 44.8 °F 43.0 °F 89% 30.05 in 10.0 mi West 3.5 mph - N/A   Clear
8:56 PM 45.0 °F - 42.1 °F 90% 30.06 in 10.0 mi Calm Calm - N/A   Clear
9:56 PM 42.1 °F 40.2 °F 39.0 °F 89% 30.06 in 10.0 mi ESE 3.5 mph - N/A   Clear
10:56 PM 39.9 °F 36.7 °F 37.9 °F 93% 30.08 in 10.0 mi ESE 4.6 mph - N/A   Clear
11:56 PM 39.0 °F - 37.0 °F 93% 30.09 in 10.0 mi Calm Calm - N/A   Clear